Other Public Products
Issued by NWS Grand Forks, ND

Home | Current Version | Previous Version | Text Only | Print | Product List | Glossary Off
Versions: 1 2 3 4 5 6 7 8 9 10 11 12 13 14 15 16 17 18 19 20 21 22 23 24 25 26 27 28 29 30 31 32 33 34 35 36 37 38 39 40 41 42 43 44 45 46 47 48 49 50

000
FPUS83 KFGF 291531
OPUFGF
PRAIRIE TO PINES WEATHER ROUNDUP
NATIONAL WEATHER SERVICE EASTERN NORTH DAKOTA/GRAND FORKS ND
1000 AM CDT SAT AUG 29 2015

 **SATELLITE DATA USED TO AUGMENT SKY COVER AT AUTOMATED STATIONS**
 *****  WEATHER ACROSS EASTERN NORTH DAKOTA  *****

CITY           SKY/WX    TMP DP  RH WIND       PRES   REMARKS
GRAND FORKS    CLOUDY    66  64  94 S9        29.91S
GRAND FORKS AF MOSUNNY   68  68 100 S8        29.91F
GRAND CITY NWS   N/A     66 N/A N/A SW7         N/A
BUXTON         NOT AVBL
DEVILS LAKE    SUNNY     68  61  77 SW8       29.91R
FARGO          SUNNY     69  61  75 S12       29.95S
WAHPETON ARPT  SUNNY     68  59  73 S10       29.99R
$$

 *****  WEATHER ACROSS CENTRAL AND WESTERN NORTH DAKOTA  *****

CITY           SKY/WX    TMP DP  RH WIND       PRES   REMARKS
JAMESTOWN      SUNNY     68  64  87 S7        29.94R
BISMARCK       CLOUDY    67  61  81 CALM      29.96S
MINOT          CLOUDY    69  53  56 S8        29.90S HAZE
MINOT AFB      MOSUNNY   69  58  68 SW1       29.90R
GARRISON         N/A     67  62  84 CALM      29.93F
WILLISTON      PTSUNNY   67  51  56 S6        29.91F HAZE
DICKINSON      SUNNY     76  49  38 S8        29.96S HAZE
HETTINGER      CLOUDY    73  54  51 CALM      30.00F HAZE
$$

 *****  OTHER OBSERVATIONS NORTHEAST NORTH DAKOTA  *****

CITY           SKY/WX    TMP DP  RH WIND       PRES   REMARKS
WALHALLA       FOG       66  66 100 MISG      29.91R VSB 1/2
LANGDON        FAIR      73  68  83 S6        29.93S
CAVALIER       FOG       64  64 100 S5        29.91R VSB<1/4
GRAFTON        FOG       64  64 100 SE6       29.91S VSB<1/4
CANDO          FAIR      68  66  94 S6        29.91F
FORT TOTTEN      N/A     68  66  94 S3        29.95
ROLLA          FAIR      64  64 100 S7        29.92S
RUGBY          FAIR      64  61  88 SW3       29.91F FOG
 ***** THE ABOVE OBSERVATIONS ARE NON NWS ARE NOT QUALITY
        CONTROLLED AND MAY MIS-REPORT RAIN FOR SNOW...
$$

 *****  OTHER OBSERVATIONS SOUTHEAST NORTH DAKOTA *****

CITY           SKY/WX    TMP DP  RH WIND       PRES   REMARKS
COOPERSTOWN    NOT AVBL
VALLEY CITY    CLOUDY    66  66 100 SW13      29.94S
OAKES            N/A     66  61  82 S14       29.97F
GWINNER          N/A     70  66  88 S14       29.97S
SHEYENNE NWR     N/A     71  65  82 SW7       29.95S
BUFFALO        NOT AVBL
WYNDMERE         N/A     70  64  83 S6          N/A
 ***** THE ABOVE OBSERVATIONS ARE NON NWS ARE NOT QUALITY
       CONTROLLED AND MAY MIS-REPORT RAIN FOR SNOW...
$$

  *****  WEATHER ACROSS NORTHERN MINNESOTA  *****

CITY           SKY/WX    TMP DP  RH WIND       PRES   REMARKS
FLAG ISLAND    FOG       64  64 100 S6        29.95R VSB 1/4
WARROAD        FOG       66  63  88 S3        29.96S VSB 1/4
ROSEAU         CLOUDY    66  61  82 SE5       29.95S HAZE
HALLOCK        FOG       66  64  94 SE8       29.91S VSB 1/2
THF RVR FALLS  CLOUDY   N/A N/A N/A S7        29.94S
HALSTAD        NOT AVBL
FOSSTON        SUNNY     70  61  73 S15       29.97S
BAUDETTE       CLOUDY    66  63  90 S3        29.97R
WASKISH        CLOUDY    66  63  88 S3        29.99R
CROOKSTON      SUNNY     68  64  88 S12       29.94S
$$
  *****  WEATHER ACROSS CENTRAL AND WEST MINNESOTA  *****

CITY           SKY/WX    TMP DP  RH WIND       PRES   REMARKS
BEMIDJI        SUNNY     67  61  81 S7        30.00R
PARK RAPIDS    SUNNY     66  58  75 S10       30.02S
WADENA         SUNNY     66  59  77 S8        30.02S
DETROIT LAKES  SUNNY     68  61  77 S8        30.01R
MOORHEAD       SUNNY     68  63  83 S12       29.97S
FERGUS FALLS   SUNNY     66  63  88 S13       30.00S
ELBOW LAKE     FAIR      65  59  82 S16       30.01F
MORRIS MN      SUNNY     66  61  82 SE10      30.03S
STAPLES        SUNNY     64  57  77 S9        30.03F
WHEATON        SUNNY     66  61  82 SE9       30.01F
$$
  *****  WEATHER ELSEWHERE ACROSS MINNESOTA  *****

CITY           SKY/WX    TMP DP  RH WIND       PRES   REMARKS
DULUTH         CLOUDY    64  56  75 W9        30.04R
INTRNTL FALLS  CLOUDY    69  63  81 SW6       29.98S
ELY            CLOUDY    63  59  88 SW6       30.03R
CLOQUET        CLOUDY    64  55  72 SW7       30.04S
BRAINERD       CLOUDY    61  57  87 SW8       30.05S
HIBBING        CLOUDY    63  57  81 VRB5      30.03S
ALEXANDRIA     SUNNY     64  58  80 S12       30.06S
SAINT CLOUD    MOSUNNY   62  58  86 S8        30.06S
MINNEAPOLIS    CLOUDY    59  57  93 CALM      30.07S FOG
$$

  *****  WEATHER ACROSS SOUTH DAKOTA  *****

CITY           SKY/WX    TMP DP  RH WIND       PRES   REMARKS
SIOUX FALLS    MOSUNNY   61  58  90 S5        30.07R
BROOKINGS      SUNNY     63  57  82 SW6       30.08S
WATERTOWN      SUNNY     64  60  87 S8        30.05S
HURON          MOSUNNY   65  61  87 S8        30.02F
SISSETON         N/A     72  64  76 S7G16     29.98S
ABERDEEN       MOSUNNY   66  62  87 S10       29.99S
MITCHELL       SUNNY     67  62  84 S8        30.05F
PIERRE         MOSUNNY   69  62  78 S5        30.00R
MOBRIDGE       SUNNY     70  67  90 S3        29.96S
RAPID CITY     SUNNY     66  57  72 CALM      30.06S
$$

  *****  SOME WEATHER IN NEARBY STATES *****

CITY           SKY/WX    TMP DP  RH WIND       PRES   REMARKS
GLASGOW MT     CLOUDY    72  47  40 CALM      29.90S HAZE
GREAT FALLS MT PTSUNNY   77  40  26 SE13      29.91F HAZE
CHEYENNE WY    SUNNY     67  45  45 W3        30.30S
SCOTTSBLUFF NE SUNNY     63  50  62 E5        30.18S
OMAHA NE       CLOUDY    62  60  93 N9        30.06S
DES MOINES IA  CLOUDY    66  61  84 N7        30.02R
DAVENPORT IA   CLOUDY    69  65  86 CALM      30.01R
CHICAGO IL     CLOUDY    65  63  93 E9        30.03F
EAU CLAIRE WI  CLOUDY    61  57  87 CALM      30.06R
LA CROSSE WI   CLOUDY    64  59  83 E5        30.04F
$$

  *****  SOME NATIONAL WEATHER *****

CITY           SKY/WX    TMP DP  RH WIND       PRES   REMARKS
LA GUARDIA NY  PTSUNNY   80  53  39 VRB3      30.20S
RALEIGH NC     PTSUNNY   79  61  53 E5        30.25R
ATLANTA GA     CLOUDY    76  67  73 E10       30.22R
NEW ORLEANS LA MOSUNNY   84  64  50 S6        30.06R
OKLAHOMA CITY  PTSUNNY   79  67  66 W5        30.02R
ALBUQUERQUE NM MOSUNNY   71  51  49 N7        30.31S
SALT LAKE CITY CLOUDY    78  42  27 SE18      30.06S
LOS ANGELES CA MOSUNNY   74  68  81 CALM      29.89R
BOISE ID       CLOUDY    77  42  28 SE10      29.84R
SEATTLE WA     CLOUDY    63  59  87 S5        29.58F
$$

*** WEATHER ACROSS MANITOBA...SASKATCHEWAN AND ONTARIO ***
                ***ONTARIO***

CITY           SKY/WX    TMP DP  RH WIND       PRES   REMARKS
GERALDTON      CLOUDY    64  63  94 SW6       29.95R FOG
THUNDER BAY    PTSUNNY   68  63  83 W7        29.97R
SIOUX LOOKOUT  CLOUDY    63  63 100 SE3       29.97R FOG
TORONTO        CLOUDY    70  59  68 SW7       30.15S
BIG TROUT LK   SUNNY     70  61  73 SW8       29.79F
PICKLE LAKE    MOSUNNY   66  64  94 S3        29.93S FOG
DRYDEN         SUNNY     68  64  88 S6        29.97R
KENORA         CLOUDY    72  63  73 S5        29.96S
$$
                *** MANITOBA***

CITY           SKY/WX    TMP DP  RH WIND       PRES   REMARKS
BRANDON        CLOUDY    64  64 100 SE5       29.88F FOG
DAUPHIN        SUNNY     68  64  88 NW5       29.80F
ISLAND LAKE    MOSUNNY   70  59  68 SW9       29.79F
PILOT MOUND      N/A     66  66 100 SE8         N/A
THE PAS        CLOUDY    63  59  88 SE10      29.66F
THOMPSON       PTSUNNY   64  55  72 CALM      29.68F
WINNIPEG       PTSUNNY   72  68  88 S8        29.90S
LYNN LAKE      CLOUDY    61  50  67 MISG      29.68F
CHURCHILL      CLOUDY    52  52 100 NE12      29.65R FOG
$$
                ***SASKATCHEWAN***

CITY           SKY/WX    TMP DP  RH WIND       PRES   REMARKS
ESTEVAN        CLOUDY    66  55  68 S7        29.88R SMOKE
KINDERSLEY     MOSUNNY   64  48  55 W6        29.79S
LLOYDMINSTER   PTSUNNY   63  52  67 W12       29.73R
PRINCE ALBERT  CLOUDY    66  55  68 W8        29.64R
REGINA         CLOUDY    64  57  77 VRB2      29.83S SMOKE
YORKTON        PTSUNNY   64  59  82 S9        29.78F



USA.gov is the U.S. government's official web portal to all federal, state and local government web resources and services.